Location: Male Bielice
(48.6330°N, 18.3330°E)
Time: 12:34:29
(UTC+01:00)

ISS - Visible Passes

Search period start: 25 November 2017 00:00
Search period end: 05 December 2017 00:00
Orbit: 401 x 407 km, 51.6° (Epoch: 25 November)

Date Brightness Start Highest point End Pass type
(mag) Time Alt. Az. Time Alt. Az. Time Alt. Az.
27 Nov -1.3 17:34:27 10° SSE 17:35:06 11° SE 17:35:06 11° SE visible
28 Nov -1.8 18:16:10 10° SW 18:17:44 23° SSW 18:17:44 23° SSW visible
29 Nov -2.3 17:24:19 10° SSW 17:26:57 22° SE 17:27:37 21° ESE visible
29 Nov -0.5 18:59:51 10° WSW 19:00:16 13° WSW 19:00:16 13° WSW visible
30 Nov -1.5 16:33:00 10° S 16:34:46 14° SE 16:36:31 10° ESE visible
30 Nov -3.1 18:07:29 10° WSW 18:10:04 50° SSW 18:10:04 50° SSW visible
01 Dec -3.2 17:15:15 10° SW 17:18:23 42° SSE 17:19:49 25° E visible
01 Dec -0.8 18:51:34 10° W 18:52:28 17° W 18:52:28 17° W visible
02 Dec -2.3 16:23:16 10° SSW 16:26:04 26° SE 16:28:53 10° E visible
02 Dec -3.7 17:59:02 10° WSW 18:02:09 72° NW 18:02:09 72° NW visible
03 Dec -3.8 17:06:35 10° WSW 17:09:52 77° SSE 17:11:47 23° ENE visible
03 Dec -1.1 18:43:16 10° W 18:44:26 19° WNW 18:44:26 19° WNW visible
04 Dec -3.6 17:50:41 10° W 17:53:55 55° N 17:54:02 54° N visible
